GFSFLT1_prec_cthk_105.txt.gz
RH
34 31 28 26 25 25 28 31 32 37 36 34 26 29 30 29 29 30 35 35 36 33 31 32 33 47 53 60 84 81 89 90
37 34 32 30 28 25 29 30 33 37 41 33 31 26 31 33 33 33 37 40 38 33 28 28 33 50 59 69 80 86 94 91
40 39 37 34 30 28 28 27 32 35 39 39 35 32 33 34 36 37 38 42 42 37 28 25 31 49 60 74 82 87 93 89
48 45 40 36 34 32 32 30 34 33 36 41 39 38 36 35 36 38 40 43 44 42 30 27 32 46 57 70 80 91 95 95
54 50 45 42 40 35 37 42 41 38 34 35 36 33 32 32 34 36 41 47 47 44 32 29 34 45 51 65 84 95 99 97
57 51 48 47 46 44 40 41 51 52 43 41 40 37 33 31 36 37 43 50 49 45 34 29 35 44 59 75 87 98 98 97
59 54 52 52 51 49 45 40 39 45 51 35 40 41 37 35 36 39 45 52 52 45 34 32 38 51 62 79 94 99 97 98
66 62 57 55 53 51 48 45 43 41 45 42 38 40 43 38 38 41 46 52 52 42 33 35 40 51 57 88 99 96 99 97
69 65 58 53 49 45 42 43 43 47 47 45 43 45 49 44 43 44 48 54 53 44 35 38 41 45 57 91 97 99 98 98
70 64 60 57 50 47 45 36 32 42 45 44 46 49 52 52 46 49 51 57 54 45 40 38 41 43 61 89 94 98 99 97
55 54 53 53 56 59 57 50 35 46 37 43 49 56 56 65 52 52 54 61 55 49 45 39 40 41 55 74 86 94 99 98
57 57 55 56 62 64 61 58 46 50 46 52 59 61 61 70 54 57 58 62 55 52 50 41 40 40 48 63 79 95 98 98
66 62 60 58 62 64 65 60 55 53 58 69 68 65 68 66 55 61 63 66 57 59 55 45 42 41 47 57 73 92 95 96
69 65 63 62 65 69 70 73 68 71 70 73 67 55 66 62 58 70 69 70 63 63 60 52 44 43 50 55 62 77 89 92
73 71 68 67 66 72 76 77 76 73 88 79 65 63 66 75 74 78 75 78 68 67 64 60 49 47 52 60 67 70 76 85
78 77 76 73 75 72 75 82 80 74 81 72 66 70 76 81 80 80 82 82 74 71 67 64 57 51 53 54 58 71 69 77
81 82 82 81 79 81 78 81 82 83 90 82 73 75 79 81 82 81 85 85 80 78 76 73 65 53 52 55 59 71 69 80
76 79 82 84 85 84 82 88 90 86 83 78 79 78 82 84 84 91 89 90 86 82 79 78 75 66 59 58 61 62 70 68
71 72 75 79 84 89 90 88 89 98 96 91 84 84 88 87 91 97 95 92 91 90 85 86 84 80 75 65 64 64 65 65

GFSFLT1_prec_cthk_108.txt.gz
RH
37 35 34 32 31 30 26 25 30 36 39 39 37 40 33 30 28 27 30 30 33 35 36 35 35 33 33 37 49 52 66 81
41 40 40 37 34 32 27 25 26 36 39 41 43 39 39 33 30 30 31 32 33 38 38 38 38 33 33 41 55 57 67 84
47 47 46 42 35 33 31 27 26 29 39 37 42 41 38 39 34 32 33 34 36 39 42 40 40 36 37 38 54 57 70 82
56 54 48 44 40 36 35 32 29 30 36 38 41 46 47 43 40 36 32 35 39 42 45 43 41 35 34 37 50 56 69 82
61 58 52 49 47 46 44 42 40 41 46 49 43 42 40 37 34 35 34 36 38 44 48 47 44 34 32 37 47 54 63 69
64 59 58 54 51 49 48 48 48 49 51 64 61 52 49 45 40 38 38 38 39 44 50 51 46 36 32 38 50 62 70 80
62 66 62 57 55 51 49 48 51 49 51 53 61 73 56 52 46 41 38 37 38 44 52 54 46 37 35 42 54 63 69 88
67 63 64 61 55 56 55 53 53 53 51 51 50 58 60 50 47 44 40 39 39 46 53 57 45 37 40 46 53 57 85 98
71 73 72 69 63 59 58 55 54 53 55 52 49 50 57 53 50 48 44 41 41 49 55 56 46 40 44 48 50 69 96 99
81 78 74 68 63 62 61 58 53 52 50 53 53 47 51 55 55 56 50 47 46 50 56 56 49 42 45 46 51 65 88 98
84 80 77 72 68 66 62 58 55 53 47 47 52 51 57 64 58 61 53 51 51 53 59 56 50 46 45 44 51 59 79 97
80 74 68 62 58 56 54 54 57 51 49 47 48 51 59 62 66 64 60 61 55 56 62 53 54 49 45 47 52 58 69 86
74 65 59 53 54 55 55 60 63 63 59 55 60 64 66 73 73 70 74 76 63 60 65 54 59 56 47 50 52 58 68 89
66 64 63 61 59 60 60 71 69 71 66 64 67 69 69 80 82 77 80 84 67 65 67 58 65 63 51 52 54 58 66 80
67 68 67 66 68 67 65 72 82 76 72 75 75 66 65 81 80 80 82 85 66 68 69 63 69 69 59 56 56 57 62 72
73 73 70 71 72 73 72 73 76 82 73 78 83 78 75 71 85 80 89 75 74 71 72 67 72 74 68 61 61 60 67 67
69 68 72 77 78 77 77 74 74 78 83 81 78 91 79 77 68 71 73 79 83 74 74 68 74 76 73 68 66 62 65 64
66 68 70 73 77 78 79 79 80 77 80 82 84 90 94 83 82 98 95 98 93 84 77 79 76 77 75 75 71 65 63 62
68 68 70 71 71 78 85 85 84 83 85 89 88 87 87 88 80 80 97 95 83 87 84 86 86 84 80 78 77 76 73 67

GFSFLT1_prec_cthk_111.txt.gz
RH
39 38 38 43 42 36 35 34 34 35 42 46 46 40 37 38 33 31 30 27 28 31 35 38 40 39 38 37 37 38 45 53
48 47 44 44 39 36 34 35 33 34 35 38 44 42 39 40 39 35 32 30 29 31 34 38 42 40 39 38 38 37 46 52
53 48 45 42 36 36 36 34 34 33 32 32 36 43 45 46 43 43 39 32 32 32 33 37 43 44 43 40 39 38 44 52
61 57 50 44 41 38 38 36 36 36 35 38 38 43 51 52 49 43 42 42 40 36 34 37 45 48 47 44 40 41 41 50
62 63 60 53 48 48 45 47 43 40 42 40 40 40 45 44 46 47 46 44 44 43 39 40 46 51 50 49 43 42 46 49
51 57 63 55 54 58 55 51 48 45 47 45 45 51 57 55 58 57 48 47 45 45 43 44 46 53 54 50 43 42 45 53
57 63 63 54 56 57 57 58 58 54 52 49 52 51 66 74 72 62 55 52 49 46 43 44 47 54 55 49 41 40 44 51
64 63 64 59 59 60 58 57 60 58 57 56 57 58 56 57 68 68 61 54 51 46 43 42 46 56 59 52 41 42 46 51
72 70 72 70 70 66 61 56 54 56 56 55 60 58 59 58 58 67 63 57 54 52 45 43 46 55 58 55 43 41 46 49
83 85 80 75 74 72 69 64 60 57 58 56 58 58 58 58 57 62 66 62 59 58 52 46 48 57 58 53 45 42 45 52
93 90 87 84 82 77 74 69 68 65 61 58 55 56 57 54 59 57 58 63 63 66 65 50 52 58 56 52 49 42 45 54
89 84 86 84 83 82 81 76 73 70 69 66 61 54 53 60 62 61 61 67 70 74 73 60 54 61 56 53 53 42 45 54
97 95 91 86 78 79 79 76 74 71 71 71 66 59 57 60 57 61 63 69 81 79 84 67 60 63 55 58 56 44 47 54
88 86 75 71 71 70 67 64 61 60 58 62 69 71 70 62 62 63 67 74 82 85 88 79 69 66 57 61 58 49 48 54
81 76 75 73 70 68 66 65 64 63 69 77 75 80 83 75 68 64 75 83 86 88 88 92 75 70 63 63 63 57 50 55
67 68 72 72 68 67 66 66 65 66 70 78 78 75 74 81 78 71 73 77 84 87 90 96 76 73 62 68 68 65 55 55
76 71 67 65 69 69 71 72 69 70 70 78 81 79 78 78 77 73 70 72 76 87 87 96 79 77 71 71 73 70 67 59
70 70 69 66 66 71 73 74 75 74 71 71 80 80 79 81 84 93 86 89 93 99 98 97 78 78 80 77 79 77 73 72
66 65 65 65 65 68 73 76 76 77 77 78 78 80 84 85 88 89 95 80 84 96 92 85 84 90 85 85 84 83 78 81

GFSFLT1_prec_cthk_114.txt.gz
RH
34 43 43 39 45 57 54 49 38 39 43 49 44 37 40 39 40 35 31 30 31 29 29 32 35 39 41 39 40 39 40 43
31 49 47 41 50 61 56 52 42 41 44 46 48 44 42 42 39 40 38 33 33 32 31 31 34 37 41 43 43 42 41 42
26 56 53 44 40 48 52 55 46 44 45 44 47 47 48 43 42 41 44 43 38 35 33 34 35 37 40 44 46 45 43 42
29 60 59 50 44 43 43 51 47 48 47 46 48 47 49 47 46 47 49 47 46 45 40 38 38 39 40 45 48 48 44 43
36 55 63 56 51 47 45 46 43 43 45 46 48 46 43 42 45 50 52 51 52 49 46 45 43 43 43 47 50 54 49 44
43 49 69 64 60 58 56 50 44 43 48 48 50 49 48 49 50 55 58 57 55 50 48 48 46 47 45 47 52 57 52 46
54 45 61 69 68 64 63 61 55 49 51 54 53 52 50 50 53 59 70 66 60 58 55 51 50 48 47 48 55 59 57 50
64 56 52 63 73 71 71 71 63 59 59 64 60 56 52 54 54 61 66 70 69 64 62 55 53 49 47 50 55 60 60 53
69 63 57 63 62 65 70 71 68 66 68 69 65 60 58 59 60 57 58 68 68 69 63 59 60 53 49 50 54 59 61 53
76 72 62 63 62 63 64 66 65 68 66 68 69 70 70 66 66 65 63 63 67 71 71 67 63 62 52 50 53 60 59 55
85 79 74 69 63 65 69 70 71 70 68 66 63 63 62 64 69 67 68 67 68 69 71 71 68 64 64 54 54 60 59 56
89 82 80 78 77 76 80 81 80 75 71 68 66 65 63 63 66 70 69 70 66 63 66 68 69 71 72 67 59 61 60 57
88 88 89 86 85 88 78 78 78 77 75 71 70 69 66 63 62 65 68 68 63 65 66 66 67 72 81 77 63 60 58 58
96 98 97 94 97 92 89 83 81 80 76 78 80 77 73 68 66 68 68 69 69 68 69 69 71 81 89 84 74 64 59 61
89 88 95 91 85 83 76 81 77 76 74 78 80 75 75 69 66 65 66 68 68 66 66 74 82 88 92 88 81 72 63 64
83 83 88 87 86 80 78 75 73 72 71 74 77 76 71 70 75 81 80 78 79 76 74 80 90 93 95 98 87 79 71 70
81 79 75 78 81 81 77 76 75 75 71 72 73 75 76 73 79 73 81 83 83 81 80 84 86 86 96 93 94 89 73 75
79 77 74 72 69 73 76 78 78 77 78 79 76 74 79 83 84 78 72 78 77 74 77 75 78 93 93 92 99 93 78 73
72 69 64 64 63 64 68 70 72 75 78 79 80 79 79 80 83 83 83 83 87 93 95 88 96 98 99 94 99 94 85 80

GFSFLT1_prec_cthk_117.txt.gz
RH
9 9 17 32 35 41 46 51 56 60 50 45 39 41 39 34 33 35 32 29 28 30 32 32 32 34 38 42 42 43 42 43
11 8 13 30 38 39 45 51 63 68 58 46 41 46 43 38 40 41 39 35 31 30 33 34 33 33 36 39 43 44 44 43
16 12 12 21 40 38 47 52 64 68 66 47 48 55 49 43 48 45 45 42 41 36 33 35 36 35 35 38 41 45 46 47
29 27 20 20 44 44 49 55 65 65 68 56 57 57 58 59 54 49 46 45 43 41 40 39 39 38 37 39 41 44 48 51
44 41 35 28 56 52 53 65 76 72 76 64 55 55 54 53 58 57 52 53 51 49 47 46 44 43 41 42 44 46 50 54
65 58 50 42 64 65 58 61 73 75 73 72 59 61 60 60 57 56 58 58 58 57 55 50 48 45 44 44 48 46 50 56
84 67 57 57 66 70 65 61 58 60 66 68 63 58 58 59 58 56 55 58 64 64 59 55 53 52 51 50 49 48 50 53
86 74 60 68 70 77 72 66 62 59 58 58 56 54 55 57 61 59 55 56 61 68 66 64 65 60 58 55 50 49 50 53
91 81 59 68 78 82 78 74 70 67 66 63 60 61 62 62 64 62 58 59 60 63 68 75 77 71 63 64 59 51 51 51
91 85 75 58 72 83 84 81 77 75 72 69 66 68 70 67 70 67 61 61 61 62 67 79 78 73 67 67 64 59 51 50
85 81 79 70 62 70 80 80 81 80 78 74 68 70 70 71 72 71 68 68 71 71 71 75 78 78 77 76 72 65 63 59
89 86 82 77 68 66 67 70 70 76 76 74 73 71 68 71 70 72 74 76 76 77 76 75 77 80 79 81 79 75 70 70
97 90 86 83 77 72 71 70 69 69 69 67 66 63 62 65 65 67 66 72 76 79 79 80 81 81 78 76 77 75 77 80
90 98 96 94 88 82 80 78 79 76 76 77 79 75 73 74 70 69 69 70 73 77 78 79 81 80 77 74 74 76 80 85
97 98 97 94 92 89 89 84 91 89 85 87 88 85 83 83 81 76 75 74 74 75 79 80 81 82 82 79 76 78 88 90
98 97 96 98 98 96 93 86 86 86 81 81 80 80 78 80 77 78 87 80 71 73 77 73 72 73 73 72 72 85 92 94
91 89 94 95 97 94 90 87 82 78 81 77 78 80 83 79 79 79 78 76 74 76 77 79 82 80 78 74 79 86 97 98
86 82 80 78 77 79 83 83 78 77 77 79 77 76 75 75 78 82 80 80 80 86 86 82 85 84 79 80 85 91 85 98
84 77 70 68 68 65 65 63 61 63 66 72 76 77 79 81 80 82 81 83 86 84 81 81 81 81 80 85 87 85 92 97

GFSFLT1_prec_cthk_120.txt.gz
RH
18 11 12 13 10 25 33 42 64 60 54 42 42 43 37 40 41 39 32 30 30 31 32 33 35 35 37 40 41 46 46 48
23 18 13 15 13 21 32 42 60 66 61 52 48 46 43 41 44 44 35 33 32 32 32 33 34 35 35 36 39 42 46 49
31 27 20 28 27 19 31 43 57 67 67 59 55 50 49 45 52 46 39 37 37 35 33 33 34 35 37 36 37 40 42 46
59 44 39 35 23 21 27 45 58 66 71 70 65 63 57 49 54 50 39 41 43 44 42 39 37 37 37 37 37 39 42 43
91 66 48 39 28 23 28 47 56 66 71 78 67 63 51 46 47 46 46 50 51 47 44 42 42 43 42 41 41 42 44 44
75 70 67 56 41 36 32 53 65 69 72 76 66 81 66 61 59 59 60 62 59 56 54 52 50 47 47 47 45 45 45 48
86 85 77 66 59 47 44 62 75 76 81 77 89 85 74 56 60 62 58 59 64 65 67 64 61 56 51 51 51 51 52 51
91 91 87 80 73 60 56 68 84 82 84 85 81 72 78 70 68 67 63 57 62 62 65 64 68 63 58 59 59 58 57 54
96 97 95 90 89 76 78 86 83 87 87 90 88 91 87 75 71 66 62 60 59 58 62 68 78 78 72 74 73 65 63 62
97 94 94 86 89 80 85 93 88 83 78 83 81 77 74 71 67 62 62 62 60 64 64 65 72 82 82 82 83 77 71 70
96 98 88 85 88 90 87 97 92 85 80 84 72 65 63 61 66 70 72 72 70 69 68 71 73 70 76 85 89 85 79 78
96 98 93 81 81 95 98 94 90 80 83 78 76 75 70 70 71 70 72 72 74 71 72 73 75 76 77 85 91 89 84 84
95 90 91 85 73 73 88 94 87 91 84 81 76 76 73 72 71 72 71 71 75 76 80 81 81 79 81 83 84 86 84 84
95 92 84 83 81 73 71 77 88 91 88 87 87 84 81 77 76 72 72 72 72 79 78 83 84 80 81 83 84 83 84 85
97 97 93 88 80 77 75 74 75 79 78 78 74 70 70 71 72 73 72 75 76 75 76 80 81 83 81 81 81 81 82 82
97 97 97 98 89 88 88 83 77 72 73 73 74 75 77 81 84 84 81 82 86 88 84 79 80 80 79 80 84 83 84 84
91 94 97 97 96 92 91 86 84 84 84 81 85 85 80 81 81 85 87 88 86 87 85 83 85 83 82 79 84 75 77 79
83 83 81 82 86 88 87 88 86 90 84 77 77 77 81 79 82 82 79 82 85 86 87 85 85 81 79 80 78 81 86 86
84 81 77 76 74 71 71 71 69 69 68 69 72 73 77 80 81 82 82 81 83 83 82 82 82 81 81 89 84 85 89 88

GFSFLT1_prec_cthk_123.txt.gz
RH
36 33 24 18 19 18 15 15 27 36 58 69 59 55 48 43 39 38 32 35 38 36 34 31 32 33 32 39 42 43 47 46
42 36 33 22 21 22 18 16 24 34 50 79 66 58 50 44 41 42 37 32 35 35 35 33 32 34 31 34 37 41 42 45
53 55 59 46 37 34 37 26 29 35 44 73 79 65 55 46 44 43 39 34 32 35 34 33 32 36 33 34 36 38 43 43
58 61 63 68 58 39 38 36 35 37 44 71 85 79 64 54 50 47 41 41 35 35 35 34 35 35 35 37 36 37 42 45
66 65 65 66 72 55 35 30 26 32 50 65 82 84 65 52 51 51 46 44 38 34 38 38 39 40 39 39 39 38 41 43
71 66 68 66 70 68 54 36 29 20 44 60 72 83 74 61 58 56 53 51 47 40 42 44 44 42 42 44 45 46 46 49
75 73 70 78 75 65 65 46 34 26 48 64 71 82 88 75 65 65 59 55 49 54 50 50 48 48 48 51 52 51 50 51
79 81 84 91 88 80 70 56 47 35 59 70 81 79 96 83 78 87 64 62 61 70 69 65 63 60 59 61 62 63 57 55
89 92 95 97 91 93 88 72 59 44 69 68 79 81 91 97 76 93 85 72 68 76 73 69 69 65 69 73 71 69 68 66
92 96 96 92 98 97 91 75 67 52 83 80 85 84 87 89 92 78 81 81 76 73 67 71 72 67 69 75 80 80 84 80
94 96 89 96 97 97 99 86 62 90 88 98 93 89 94 92 93 84 88 75 79 75 72 66 64 65 72 68 76 82 81 91
96 97 91 91 97 98 92 90 74 80 98 98 98 98 97 92 86 85 91 82 76 76 74 74 71 68 69 71 74 79 84 84
92 94 96 91 95 96 93 88 78 82 96 91 86 91 91 94 97 94 89 83 78 79 77 77 77 77 72 73 78 78 77 80
96 87 92 96 96 91 96 90 87 79 90 95 91 91 96 97 93 88 84 81 78 73 75 78 76 73 73 76 80 79 84 87
97 96 89 91 91 89 94 94 85 89 98 98 95 90 90 83 86 85 83 80 78 74 77 78 76 75 77 81 81 81 83 83
97 97 97 97 88 86 83 82 88 92 94 87 83 84 79 80 86 83 73 72 72 79 82 75 70 71 76 80 83 83 82 83
92 95 96 94 96 91 91 90 84 85 75 74 71 70 74 75 71 71 72 82 81 81 79 78 79 80 83 82 84 82 80 79
82 82 84 87 86 82 73 75 82 75 72 72 65 66 71 67 75 78 77 79 79 78 82 84 86 83 87 87 89 88 89 89
79 79 78 77 77 78 78 71 66 62 55 54 62 66 68 73 74 72 74 79 78 76 76 78 81 83 86 86 86 88 86 83

GFSFLT1_prec_cthk_129.txt.gz
RH
30 29 29 28 28 26 24 24 23 21 15 16 18 19 29 64 84 77 65 52 45 42 37 38 45 47 44 41 40 39 42 48
37 34 32 30 31 31 31 27 27 26 23 17 15 17 26 50 67 82 84 62 50 45 40 41 41 45 42 38 37 38 40 46
43 38 36 34 34 36 35 34 29 29 30 28 23 19 19 45 65 76 85 79 58 47 39 43 41 42 43 41 37 38 42 46
44 42 39 39 40 40 40 39 37 32 32 32 31 23 21 24 57 67 77 93 65 49 42 41 43 44 43 41 41 39 40 45
51 46 46 48 48 50 50 46 43 42 39 37 37 33 21 18 40 63 80 90 86 56 48 42 43 46 41 40 41 42 42 42
53 54 57 56 56 53 53 51 48 46 42 41 39 37 29 19 21 61 77 87 98 69 52 45 39 45 44 43 42 42 43 41
59 65 64 60 61 61 60 59 57 51 49 46 41 37 34 26 19 38 74 80 96 87 56 52 47 45 43 42 42 41 44 45
66 68 66 68 67 64 65 66 68 65 63 61 55 46 41 34 18 24 68 78 86 96 68 55 48 46 47 48 46 43 45 47
71 72 73 74 70 69 71 70 69 80 80 78 73 56 47 39 20 24 62 80 89 98 87 63 56 50 50 52 52 49 52 56
76 75 73 77 73 76 75 79 77 83 88 88 91 68 48 44 30 34 47 72 91 97 94 81 71 59 58 59 58 58 61 64
79 76 75 74 80 85 84 84 89 90 94 85 71 65 54 58 43 33 40 81 92 78 95 97 83 76 79 69 67 70 73 75
83 83 82 81 90 94 94 95 95 95 96 91 71 90 78 64 59 48 59 82 97 89 98 95 86 85 85 74 81 86 90 88
86 88 86 87 89 94 96 97 97 96 97 97 89 71 78 70 59 57 71 92 99 90 99 99 90 99 95 98 98 96 95 89
89 89 91 92 93 89 97 97 95 97 98 98 99 85 82 84 63 69 82 87 95 86 97 94 87 98 89 93 96 91 90 92
86 90 92 91 90 92 96 96 96 97 98 98 99 95 88 80 65 76 73 98 98 99 98 97 98 97 95 95 94 95 96 94
76 79 84 87 89 88 82 85 91 94 98 99 96 99 95 85 74 81 94 90 94 97 98 98 97 97 98 96 96 98 98 95
61 71 75 74 85 86 80 73 71 73 83 91 93 92 94 82 87 78 85 94 92 96 98 99 97 98 98 98 96 95 98 99
62 58 60 67 65 70 75 72 68 65 65 68 65 67 67 70 70 78 89 95 97 96 96 93 95 95 95 92 92 89 87 84
55 56 57 54 55 50 49 50 56 56 54 56 54 49 50 46 49 48 57 63 63 70 75 81 77 80 81 78 79 79 80 81

GFSFLT1_prec_cthk_132.txt.gz
RH
29 32 34 34 34 32 27 23 22 21 22 21 18 18 13 15 17 34 67 80 86 72 52 43 42 41 50 49 48 45 41 45
39 38 38 38 36 31 27 26 25 24 25 25 22 21 18 14 15 20 45 81 87 91 73 53 49 42 45 48 49 49 46 46
46 45 40 38 34 31 32 33 32 32 31 29 27 22 20 16 15 15 33 63 86 94 93 65 52 50 47 48 49 49 48 46
47 47 44 39 39 40 43 44 42 41 40 36 33 27 22 22 18 15 20 52 77 91 95 87 61 56 48 47 51 49 47 45
49 45 41 42 45 50 50 50 48 46 44 41 41 34 27 25 23 18 16 35 65 89 93 90 75 60 51 48 50 48 46 44
52 47 45 48 53 54 55 55 53 52 51 50 45 43 38 32 27 24 18 18 46 77 90 98 90 71 55 53 51 51 47 44
56 51 50 56 59 60 59 58 57 60 59 57 53 46 44 40 33 30 25 18 24 58 88 91 96 84 61 54 52 53 48 47
56 53 54 60 57 60 62 62 64 64 62 60 62 60 50 45 41 34 31 22 19 41 69 95 95 98 68 62 60 57 50 49
62 60 62 67 67 70 69 68 68 69 68 70 72 72 68 54 47 38 32 29 22 29 57 79 94 88 85 65 69 61 58 52
67 65 69 74 76 73 75 76 73 73 74 80 84 87 83 74 61 49 35 31 27 30 44 56 87 82 98 72 68 72 62 57
72 70 74 79 80 77 80 80 76 75 80 85 82 89 86 82 73 58 49 38 37 31 32 59 83 97 91 79 75 73 63 62
75 75 75 81 85 84 82 85 80 79 83 85 82 75 65 64 77 64 53 53 45 41 39 57 81 92 91 90 80 82 78 77
73 79 79 76 81 89 87 86 83 84 87 91 79 90 96 86 86 70 64 59 52 34 47 69 88 92 99 96 92 85 86 77
63 77 81 83 79 78 88 89 93 92 96 96 96 90 98 90 96 89 86 75 65 49 49 67 80 84 90 97 87 96 94 81
60 60 77 80 86 78 77 84 95 93 97 96 97 97 97 96 88 88 88 88 80 63 64 76 97 98 98 99 97 97 98 98
59 61 61 63 72 80 75 71 78 84 89 94 97 97 95 96 95 98 98 94 89 72 69 81 91 93 96 98 97 96 98 99
59 60 57 62 54 55 71 67 62 68 71 71 70 84 96 97 98 94 96 91 88 76 78 77 80 96 98 99 98 98 98 99
58 54 50 51 53 46 43 47 50 51 54 50 58 62 64 70 75 78 76 77 81 82 81 87 97 99 98 96 98 98 98 97
60 50 45 43 39 40 36 34 33 30 32 36 35 34 33 36 41 47 53 48 47 52 57 64 69 72 77 86 89 86 85 86

GFSFLT1_prec_cthk_135.txt.gz
RH
30 33 32 32 32 31 30 28 26 24 22 19 17 16 15 14 14 15 14 12 25 65 92 90 83 56 51 47 52 54 50 48
37 34 33 33 33 35 35 32 30 29 26 25 24 21 19 17 15 17 18 14 15 35 74 92 86 76 46 50 56 59 55 53
40 36 39 38 35 34 31 32 33 34 37 36 35 31 25 22 19 18 21 19 15 20 52 91 96 80 54 53 56 61 58 57
39 42 44 41 37 35 34 39 43 44 43 41 38 35 34 30 25 21 23 21 18 18 26 61 80 94 80 58 55 62 60 61
47 48 47 45 41 39 42 46 47 48 47 45 44 42 39 38 36 28 25 23 20 19 22 38 80 89 96 74 58 63 66 63
54 51 48 46 44 44 49 51 52 54 55 53 50 45 45 44 41 38 32 25 23 21 21 27 66 91 99 94 69 70 66 67
56 53 52 51 49 52 58 59 59 61 59 61 57 55 54 53 49 43 40 29 26 25 22 24 38 78 89 96 89 72 70 68
58 55 54 53 53 58 64 62 60 64 65 63 60 62 62 59 57 52 47 38 30 27 27 23 28 57 81 91 97 80 75 72
61 59 57 60 62 64 66 63 62 63 60 61 62 67 67 67 70 64 53 46 39 32 31 26 23 39 59 87 95 97 79 73
64 62 59 59 64 68 72 72 69 65 64 63 66 66 63 63 78 82 71 56 49 42 39 32 24 27 46 75 92 88 94 79
64 64 63 60 62 70 76 76 74 73 70 69 68 67 71 68 84 95 86 66 53 45 41 38 31 19 41 66 80 88 98 86
63 60 64 64 62 64 76 79 79 78 78 77 77 83 83 71 67 98 91 78 62 50 44 36 32 23 24 44 86 91 94 88
61 56 59 66 65 64 66 74 81 84 86 84 84 93 89 81 70 91 92 80 67 56 49 47 36 42 45 37 64 84 87 95
63 59 53 56 60 65 65 66 72 79 93 93 91 89 89 92 96 75 79 87 84 73 64 55 48 48 49 54 66 75 90 97
67 60 53 52 56 55 65 61 65 71 73 87 94 95 95 97 98 95 94 86 85 84 70 60 57 54 71 64 65 76 95 95
66 59 53 50 53 46 43 51 49 51 57 65 74 95 97 97 97 96 97 98 91 85 96 81 71 79 84 77 74 77 89 98
70 61 52 47 42 45 35 35 38 41 39 40 45 55 73 90 90 96 97 98 98 99 98 91 77 83 80 72 85 91 93 98
70 64 53 45 35 35 36 33 32 31 34 36 36 34 34 44 54 60 72 73 76 88 95 98 93 80 74 68 80 82 89 98
68 66 55 43 35 31 30 32 32 33 31 28 27 33 30 27 26 33 31 34 38 42 50 58 59 57 60 56 61 69 82 90

GFSFLT1_prec_cthk_138.txt.gz
RH
29 27 26 32 32 28 28 27 26 24 23 21 20 20 19 19 18 16 15 13 13 15 14 19 52 75 82 79 51 47 48 52
30 32 36 39 33 31 33 30 28 26 24 24 25 26 25 24 24 24 21 17 14 15 17 16 27 57 94 84 73 49 49 56
37 43 45 39 34 36 33 31 30 30 30 31 32 32 31 31 30 30 28 24 18 16 19 19 23 44 55 98 91 68 54 60
45 46 40 36 35 34 34 34 35 36 36 37 36 37 37 37 36 33 32 30 23 19 20 20 24 35 52 60 98 81 64 62
48 42 40 38 38 39 38 40 40 42 45 46 46 44 42 43 43 39 37 36 31 24 21 23 27 32 35 52 73 91 83 63
47 43 41 43 44 43 44 45 47 50 52 49 48 49 47 46 48 49 43 40 38 33 25 26 28 32 34 27 67 93 85 73
45 42 45 48 46 46 50 51 54 56 54 53 51 51 52 51 53 55 51 47 44 39 33 28 30 33 31 30 28 71 90 94
45 48 51 46 44 49 53 55 58 60 60 59 55 55 54 55 56 60 60 57 52 46 40 36 33 34 28 25 28 46 89 94
49 53 51 47 46 49 53 57 59 64 62 61 61 60 57 57 57 52 55 60 63 55 45 40 38 34 28 23 22 32 66 84
52 54 54 46 47 49 50 56 61 67 66 64 62 63 63 68 71 66 64 65 65 68 54 47 45 36 28 23 20 23 50 78
55 53 52 48 47 49 48 53 66 67 71 71 71 70 71 75 74 71 71 76 79 72 67 59 50 38 28 25 21 20 28 74
58 57 53 48 43 48 45 49 56 63 70 76 74 73 75 74 78 81 91 97 98 84 74 64 51 41 32 26 25 26 31 56
61 58 56 49 43 43 43 41 47 52 65 76 81 78 80 80 85 93 97 99 94 84 74 64 54 45 35 33 30 28 28 41
60 57 54 47 42 37 33 30 36 43 47 59 82 86 85 84 86 84 92 92 90 86 78 70 62 53 43 43 48 46 39 37
61 58 53 46 39 33 31 27 27 36 38 39 52 76 88 91 94 88 94 96 93 89 83 80 77 72 69 62 58 58 68 59
63 58 53 47 39 31 28 28 26 25 30 34 33 39 56 72 90 96 98 98 97 98 96 80 73 71 74 73 93 80 71 66
63 58 53 43 39 32 27 25 25 25 30 27 31 29 33 40 40 58 72 94 98 97 97 98 96 94 84 91 98 92 94 85
61 59 53 43 39 35 30 26 24 24 28 25 25 28 33 26 27 28 35 39 50 68 73 86 91 84 89 93 98 98 98 99
62 61 54 44 40 36 34 29 27 24 23 30 23 22 22 28 24 19 18 22 22 24 34 42 47 49 48 56 60 67 69 74

GFSFLT1_prec_cthk_141.txt.gz
RH
33 31 29 28 30 32 31 30 29 27 25 24 23 22 22 20 19 19 20 17 17 16 13 11 11 13 18 40 69 78 91 71
36 33 33 34 36 35 34 32 30 28 26 26 24 24 24 23 23 23 24 25 23 21 19 15 12 15 20 25 49 64 95 89
38 38 38 42 41 39 36 32 30 30 30 29 30 30 29 29 29 31 29 29 29 26 24 21 18 19 19 28 30 55 75 85
46 46 46 45 41 36 34 33 32 32 33 34 34 35 36 37 37 35 37 37 36 34 29 26 24 28 23 27 31 37 64 95
52 51 46 39 35 35 37 35 34 36 38 40 41 41 40 41 38 38 39 41 40 42 39 31 27 31 28 31 32 27 29 40
52 47 42 41 37 36 37 35 37 41 44 45 45 45 44 42 43 44 44 43 46 46 46 42 35 32 29 33 39 31 38 33
54 48 45 40 39 39 35 34 41 46 48 50 49 48 47 45 46 48 46 46 47 52 51 48 42 36 31 35 38 36 32 42
53 48 46 44 43 41 35 35 41 46 52 52 53 51 51 52 54 54 53 49 46 48 55 53 47 43 35 39 39 40 30 31
51 48 44 46 45 40 36 35 41 43 51 56 57 56 58 59 60 61 60 58 56 57 55 58 55 50 45 45 41 35 31 27
55 47 49 47 42 40 37 37 39 40 46 54 59 58 60 63 63 62 60 59 58 59 64 61 64 59 54 51 46 36 36 28
51 50 50 47 44 39 32 34 34 37 43 50 63 63 61 69 71 69 67 69 71 73 71 78 68 67 62 55 47 39 36 24
54 53 52 51 45 33 27 27 29 31 40 46 56 69 67 70 77 76 70 74 78 94 93 90 84 74 70 59 51 43 39 32
54 55 54 52 41 29 24 25 25 25 28 39 44 64 75 77 77 76 81 81 89 90 93 92 88 76 74 63 55 46 39 35
54 56 55 51 41 29 23 23 23 24 24 26 31 42 60 80 83 81 81 85 87 92 92 84 81 73 72 64 55 48 45 46
57 56 54 51 41 30 25 22 23 23 21 24 25 30 40 52 70 86 91 90 93 97 97 94 86 69 60 57 51 48 48 50
59 59 55 49 41 31 26 23 23 22 21 22 22 27 29 32 37 56 71 90 96 97 97 97 96 87 81 79 74 71 69 67
61 61 56 50 42 33 28 24 25 25 22 22 22 22 26 23 27 31 36 43 62 73 85 94 92 97 93 88 83 81 90 88
63 61 56 52 43 35 30 26 25 28 24 22 23 20 20 25 21 23 22 31 35 44 52 55 59 65 70 84 92 97 97 97
62 60 57 52 45 37 32 29 27 31 27 23 19 21 20 25 22 12 14 13 17 23 30 35 44 46 44 42 43 47 51 61

GFSFLT1_prec_cthk_144.txt.gz
RH
35 36 36 34 33 32 32 32 32 31 31 30 29 29 29 28 28 27 26 25 24 23 22 21 20 17 16 17 17 20 32 60
37 37 37 36 36 36 39 39 36 32 31 30 30 30 30 31 31 31 29 29 27 26 25 22 22 25 23 19 19 21 26 35
38 39 41 41 43 42 40 37 36 33 32 33 34 35 34 33 33 33 32 30 31 31 30 29 29 29 27 25 23 23 25 31
42 45 46 46 44 42 40 38 35 35 36 36 35 36 37 36 37 37 38 39 40 39 38 35 35 33 31 29 28 27 31 32
45 44 44 43 42 41 40 39 38 38 36 37 38 39 40 41 40 42 43 44 43 42 42 39 38 37 35 33 31 35 36 37
52 54 52 50 47 44 42 37 35 36 36 38 41 44 46 46 46 48 48 49 48 46 46 45 44 42 39 40 37 38 38 41
55 57 56 48 45 42 40 37 36 36 36 38 44 48 51 51 52 53 54 54 53 52 49 47 45 46 45 44 43 39 36 39
58 59 57 50 45 43 38 38 38 34 35 40 45 50 53 56 56 56 55 57 57 57 53 52 52 49 47 48 46 44 43 40
64 63 62 52 44 40 37 34 32 32 34 39 47 52 58 58 60 59 60 60 60 59 56 53 54 55 51 51 53 49 51 52
69 66 62 51 39 39 33 27 27 26 29 35 42 54 59 61 63 62 62 60 61 63 62 57 58 58 58 56 58 58 55 55
70 67 59 46 42 37 29 25 23 22 23 29 35 47 59 68 67 68 65 66 67 69 73 74 74 70 63 63 64 66 65 67
66 62 56 44 42 35 28 27 22 18 18 23 30 41 47 70 76 73 72 70 72 73 78 82 89 90 74 71 72 76 73 66
67 63 54 46 40 33 28 30 23 17 16 18 21 28 35 49 75 79 77 78 80 78 81 86 96 98 92 87 81 80 73 64
69 66 54 48 40 33 30 29 23 19 16 16 19 21 22 31 48 68 86 86 85 84 87 91 97 98 99 90 87 80 73 63
72 68 56 49 40 34 33 30 25 21 19 17 19 22 18 22 26 42 58 85 95 95 95 93 79 85 84 91 89 83 74 67
78 66 58 49 43 40 37 33 30 29 28 26 23 23 18 24 20 29 37 47 61 81 95 97 96 85 79 79 75 72 67 61
77 68 61 52 47 43 39 36 31 31 30 27 27 27 26 22 26 17 20 32 38 52 52 58 78 94 93 93 91 82 87 82
71 63 60 55 48 44 40 39 34 34 33 29 28 30 25 25 34 27 20 12 21 32 41 45 51 51 51 59 67 76 85 90
68 61 57 50 46 42 40 39 38 32 31 31 29 35 26 24 24 35 27 19 14 16 29 34 33 34 34 33 36 41 46 51

GFSFLT1_prec_cthk_147.txt.gz
RH
33 32 33 33 33 34 34 34 35 34 33 31 29 29 28 29 29 30 31 31 31 30 28 27 28 26 26 25 24 23 23 27
34 34 35 35 35 37 38 37 35 34 33 31 29 29 30 31 32 33 34 33 33 33 32 30 31 30 29 28 29 27 23 23
37 38 38 38 39 40 37 34 34 33 32 32 34 34 34 35 35 35 35 35 33 33 34 33 33 32 31 30 29 31 32 26
38 39 40 40 40 39 38 38 38 39 38 35 34 35 34 34 34 35 38 40 39 39 40 40 39 39 37 34 33 32 36 35
41 43 45 45 45 46 44 44 41 38 34 35 34 34 35 36 37 39 43 46 46 46 46 46 45 45 43 41 39 37 37 39
45 47 48 50 50 49 48 43 42 38 35 32 34 36 38 43 45 47 49 50 51 52 51 50 49 48 46 45 44 43 41 41
52 53 52 53 52 51 48 44 41 36 33 32 33 37 43 44 50 52 53 55 54 52 52 55 53 50 48 48 47 46 44 42
56 58 60 58 59 54 50 43 35 32 32 29 30 36 42 46 51 53 56 56 56 56 54 54 54 52 53 55 50 49 48 46
63 62 63 64 63 56 47 38 33 31 27 27 31 29 35 45 52 57 60 61 59 60 60 60 58 58 57 55 55 53 52 49
63 60 64 65 60 53 39 33 29 26 24 28 29 25 28 34 47 59 63 66 66 66 65 64 64 64 64 62 59 56 57 58
63 62 63 64 55 46 34 29 28 22 22 30 25 21 24 32 37 58 64 67 68 68 69 68 68 68 69 72 70 63 65 65
62 65 66 62 56 46 34 30 25 21 19 27 20 15 19 24 28 45 68 70 73 72 73 73 74 76 81 84 85 77 72 78
48 60 70 62 57 48 35 30 25 21 20 21 20 15 13 14 18 29 56 75 78 81 78 81 84 83 84 95 93 86 82 84
52 66 74 65 60 48 36 34 27 23 21 21 21 18 14 13 14 17 23 49 71 85 86 86 88 86 94 97 98 90 91 94
68 74 74 70 62 52 45 40 35 30 29 26 23 21 15 14 14 18 18 22 44 60 87 93 94 92 93 98 98 98 97 95
79 85 82 74 66 53 45 41 37 33 31 29 28 28 23 18 22 21 21 16 24 44 50 61 83 93 91 91 97 96 93 84
93 89 84 74 57 51 47 40 36 32 31 30 30 29 26 24 27 27 33 19 13 21 40 45 54 59 72 81 83 85 88 84
87 84 76 71 59 50 44 40 36 35 34 33 33 31 29 27 29 26 28 29 21 14 21 32 34 45 49 50 47 58 55 61
82 73 69 63 52 45 40 39 39 35 33 36 36 33 33 32 32 31 26 25 32 21 17 21 29 27 31 37 38 43 45 43

GFSFLT1_prec_cthk_150.txt.gz
RH
34 34 33 33 33 33 33 35 33 30 29 25 25 24 24 25 25 26 26 27 28 29 29 29 30 29 29 28 28 26 26 26
34 34 35 35 35 37 36 33 31 30 28 26 25 24 26 27 28 29 31 34 34 34 35 34 33 33 33 33 32 31 28 30
38 37 36 37 36 36 35 35 35 34 30 31 30 28 30 31 32 33 35 36 34 33 34 36 38 38 37 37 37 34 33 35
37 37 39 39 39 39 40 38 37 37 36 32 28 29 29 30 31 33 36 38 39 41 41 43 44 43 42 42 41 40 36 35
36 40 41 42 41 43 43 41 40 40 38 33 30 29 31 30 32 35 39 42 43 47 48 48 49 48 47 47 46 45 44 41
40 43 45 45 46 46 47 46 44 43 40 34 28 29 28 29 31 35 40 45 48 49 51 52 52 50 49 50 49 49 47 46
46 50 51 50 50 50 50 50 47 45 39 32 27 25 26 23 30 34 37 46 51 52 54 54 54 54 53 52 54 54 51 47
49 54 53 53 54 48 51 53 49 43 33 29 26 24 22 25 28 30 34 45 51 56 58 58 59 59 59 55 54 55 58 57
51 51 53 54 52 49 48 48 44 37 27 29 26 19 22 28 28 27 34 46 52 56 59 59 59 59 59 57 58 59 58 54
47 44 49 51 52 55 52 48 43 32 24 27 25 17 19 26 26 24 29 45 54 57 60 62 62 63 63 63 63 64 62 62
41 42 44 43 45 55 55 49 44 32 24 25 22 17 17 19 21 20 24 35 54 59 64 68 68 69 69 69 69 69 70 70
38 42 36 38 44 47 52 51 46 33 25 24 21 17 17 15 15 14 18 25 43 62 62 70 74 73 71 72 78 77 79 79
46 46 41 44 50 53 54 55 47 35 28 26 22 20 18 14 15 14 12 13 23 47 67 69 76 79 80 82 87 86 93 94
49 49 56 55 61 57 62 60 54 39 35 32 26 23 20 16 16 14 11 12 14 14 37 65 74 79 86 86 93 95 95 95
51 59 63 62 62 71 72 67 56 42 39 35 31 29 24 21 21 17 12 11 14 17 19 42 56 68 89 94 95 97 97 98
68 76 73 76 85 77 73 64 49 45 39 34 32 30 27 28 28 24 17 13 16 19 14 24 45 58 61 63 82 95 96 97
71 96 96 86 81 75 70 57 46 40 35 33 33 32 30 28 31 29 25 18 18 18 17 12 30 44 46 52 58 56 70 84
80 85 84 77 74 69 60 51 43 40 38 37 35 32 31 33 32 32 30 26 25 18 16 19 13 26 36 34 38 42 41 50
85 84 79 74 72 63 49 46 43 34 33 35 33 35 37 36 35 37 38 36 35 21 17 18 14 13 24 33 26 29 35 36